THY9539 LTFM-LTFJ

Flight info

Callsign THY9539
Flight time N/A
Altitude 11000
Route IST
Aircraft A320/M-SDE3FGHIRWY/LB1

Departure

Time 2026-05-01 15:20
Airport İstanbul Airport (LTFM)

Arrival

Time N/A
Airport Istanbul Sabiha Gökçen International Airport (LTFJ)
Time Latitude Longitude Altitude Speed Heading
2026-05-01 15:00 41.26776 28.73442 334 ft 0 kts 179°
2026-05-01 15:09 41.26777 28.73442 334 ft 2 kts 179°
2026-05-01 15:09 41.26803 28.73443 330 ft 4 kts 185°
2026-05-01 15:09 41.26830 28.73448 330 ft 4 kts 194°
2026-05-01 15:09 41.26855 28.73460 332 ft 4 kts 213°
2026-05-01 15:10 41.26871 28.73482 334 ft 2 kts 256°
2026-05-01 15:10 41.26872 28.73484 334 ft 0 kts 257°
2026-05-01 15:15 41.26871 28.73479 330 ft 2 kts 257°
2026-05-01 15:15 41.26866 28.73407 330 ft 6 kts 274°
2026-05-01 15:16 41.26868 28.73260 329 ft 10 kts 268°
2026-05-01 15:16 41.26866 28.73047 331 ft 11 kts 266°
2026-05-01 15:17 41.26718 28.72994 334 ft 14 kts 178°
2026-05-01 15:18 41.26361 28.73001 331 ft 20 kts 179°
2026-05-01 15:18 41.26243 28.73001 332 ft 12 kts 191°
2026-05-01 15:19 41.26254 28.72776 330 ft 12 kts 347°
2026-05-01 15:19 41.26293 28.72775 334 ft 0 kts 358°
2026-05-01 15:19 41.26327 28.72774 330 ft 26 kts 359°
2026-05-01 15:20 41.27560 28.72749 334 ft 139 kts 359°
2026-05-01 15:20 41.28615 28.72729 690 ft 150 kts
2026-05-01 15:20 41.29679 28.72650 1303 ft 156 kts
2026-05-01 15:21 41.30768 28.72539 1926 ft 159 kts
2026-05-01 15:21 41.31887 28.72457 2418 ft 166 kts
2026-05-01 15:21 41.33102 28.72473 2684 ft 187 kts
2026-05-01 15:21 41.34495 28.72501 2983 ft 206 kts
2026-05-01 15:22 41.37678 28.72513 3934 ft 244 kts
2026-05-01 15:22 41.39392 28.72498 4681 ft 250 kts
2026-05-01 15:22 41.41117 28.72478 4936 ft 252 kts
2026-05-01 15:23 41.42865 28.72452 5010 ft 251 kts
2026-05-01 15:23 41.44611 28.72404 5017 ft 251 kts 358°
2026-05-01 15:23 41.46324 28.71887 5012 ft 255 kts 341°
2026-05-01 15:23 41.47865 28.70703 5006 ft 259 kts 324°
2026-05-01 15:24 41.49101 28.68931 5025 ft 264 kts 307°
2026-05-01 15:24 41.49895 28.66701 5013 ft 268 kts 289°
2026-05-01 15:24 41.50146 28.64215 5015 ft 274 kts 271°
2026-05-01 15:24 41.49803 28.61707 5013 ft 279 kts 252°
2026-05-01 15:25 41.48864 28.59435 5017 ft 281 kts 232°
2026-05-01 15:25 41.47422 28.57679 5022 ft 283 kts 212°
2026-05-01 15:25 41.45627 28.56622 5012 ft 283 kts 192°
2026-05-01 15:25 41.43684 28.56390 5012 ft 280 kts 172°
2026-05-01 15:26 41.41805 28.56965 5012 ft 276 kts 158°
2026-05-01 15:26 41.39962 28.57714 5012 ft 278 kts 162°
2026-05-01 15:26 41.38077 28.58296 5010 ft 278 kts 166°
2026-05-01 15:26 41.36192 28.58732 5010 ft 279 kts 169°
2026-05-01 15:27 41.34265 28.59066 5012 ft 280 kts 170°
2026-05-01 15:27 41.32334 28.59395 5003 ft 279 kts 170°
2026-05-01 15:27 41.30396 28.59578 5009 ft 280 kts 180°
2026-05-01 15:28 41.26518 28.59006 5021 ft 280 kts 180°
2026-05-01 15:28 41.24591 28.59245 5015 ft 277 kts 163°
2026-05-01 15:28 41.22817 28.60182 5012 ft 273 kts 147°
2026-05-01 15:29 41.19549 28.62750 5014 ft 273 kts 146°
2026-05-01 15:29 41.17914 28.64045 5011 ft 273 kts 146°
2026-05-01 15:29 41.14642 28.66621 5015 ft 273 kts 146°
2026-05-01 15:30 41.11368 28.69186 5014 ft 273 kts 147°
2026-05-01 15:31 41.04846 28.74289 5012 ft 273 kts 147°
2026-05-01 15:31 41.01575 28.76858 5012 ft 272 kts 143°
2026-05-01 15:32 40.99355 28.79397 5012 ft 269 kts 128°
2026-05-01 15:32 40.97746 28.81915 5011 ft 269 kts 129°
2026-05-01 15:33 40.97431 28.82389 5010 ft 268 kts 126°
2026-05-01 15:34 40.96588 28.89176 5015 ft 258 kts 82°